Regional Weather Roundup
Issued by NWS

Home | Current Version | Previous Version | Graphics & Text | Print | Product List | Glossary On
Versions: 1 2 3 4 5 6 7 8 9 10 11 12 13 14 15 16 17 18 19 20 21 22 23 24 25 26 27 28 29 30 31 32 33 34 35 36 37 38 39 40 41 42 43 44 45 46 47 48 49 50
501
ASUS44 KJAN 192003
RWRMS

MISSISSIPPI HOURLY WEATHER ROUNDUP
NATIONAL WEATHER SERVICE JACKSON MS
200 PM CST FRI DEC 19 2014

NOTE: "FAIR: INDICATES FEW OR NO CLOUDS BELOW 12,000 FEET WITH NO
SIGNIFICANT WEATHER AND/OR OBSTRUCTIONS TO VISIBILITY.

MSZ001>002-007>008-010>013-018>021-025>028-034>036-192100-
NORTHWEST MISSISSIPPI

CITY           SKY/WX    TMP DP  RH WIND       PRES   REMARKS
CLARKSDALE     CLOUDY    45  39  81 N7        30.20F
CLEVELAND      LGT RAIN  46  43  90 NE10      30.17F
GREENWOOD      LGT RAIN  47  41  80 N7        30.18F
GREENVILLE     LGT RAIN  47  43  86 NE10      30.17F
GRENADA        MOCLDY    45  36  70 CALM      30.18F
OLIVE BRANCH   CLOUDY    41  37  87 NE7       30.21F
OXFORD         CLOUDY    43  34  70 NE6       30.22S
TUNICA         CLOUDY    45  37  76 NE9       30.21F
$$

MSZ003>006-009-014>017-022>024-029>033-037>039-192100-
NORTHEAST MISSISSIPPI

CITY           SKY/WX    TMP DP  RH WIND       PRES   REMARKS
COLUMBUS AFB   CLOUDY    49  37  63 NW10      30.18F
CORINTH        CLOUDY    43  34  70 CALM      30.21F
GOLDN TRIANGLE PTSUNNY   48  37  66 N9        30.17F
STARKVILLE     MOCLDY    50  37  62 N5        30.18S
TUPELO         CLOUDY    46  37  71 NE9       30.20F
$$

MSZ040-058-192100-
CENTRAL MISSISSIPPI

CITY           SKY/WX    TMP DP  RH WIND       PRES   REMARKS
JACKSON INTL   RAIN      47  44  90 N7        30.14F
JACKSON HAWKNS LGT RAIN  47  44  90 N5        30.14F FOG
MERIDIAN KEY   LGT RAIN  47  41  80 NE8       30.12F
MERIDIAN NAS   LGT RAIN  46  41  82 N6        30.12F
RAYMOND        LGT RAIN  46  41  81 N5        30.15S
VICKSBURG      LGT RAIN  47  44  90 NE12      30.15F
$$

MSZ059>079-192100-
SOUTH MISSISSIPPI

CITY           SKY/WX    TMP DP  RH WIND       PRES   REMARKS
HATTIESBURG    LGT RAIN  50  45  83 N5        30.12R
MCCOMB         RAIN      46  42  86 E6        30.11S FOG
NATCHEZ        CLOUDY    48  45  87 NE10      30.10F
PINE BELT      CLOUDY    48  43  81 N6        30.13R
$$

MSZ080>082-192100-
COASTAL MISSISSIPPI

CITY           SKY/WX    TMP DP  RH WIND       PRES   REMARKS
BAY ST LOUIS   RAIN      50  46  87 NW5       30.10R VSB 1
BILOXI         LGT RAIN  52  52 100 NE7       30.08R
PASCAGOULA     LGT RAIN  52  50  93 NE7       30.06F FOG
GULFPORT       LGT RAIN  51  49  92 NE9       30.06F FOG
$$



USA.gov is the U.S. government's official web portal to all federal, state and local government web resources and services.